�������l�o���
Date,Time,MP-1(��Sv/h),MP-2(��Sv/h),MP-3(��Sv/h),MP-4(��Sv/h),MP-5(��Sv/h),MP-6(��Sv/h),MP-7(��Sv/h),MP-8(��Sv/h),����,����(m/s),���J
2021/08/31,00:00,0.612,0.919,0.579,1.107,0.788,0.369,0.635,0.593,-,CALM,��
2021/08/31,00:10,0.615,0.919,0.578,1.108,0.789,0.369,0.636,0.592,�k�k��,0.6,��
2021/08/31,00:20,0.612,0.918,0.580,1.105,0.788,0.368,0.635,0.593,�k,1.1,��
2021/08/31,00:30,0.614,0.920,0.579,1.106,0.789,0.368,0.636,0.593,�k�k��,1.7,��
2021/08/31,00:40,0.614,0.920,0.579,1.106,0.789,0.369,0.637,0.592,�k,1.7,��
2021/08/31,00:50,0.613,0.918,0.580,1.107,0.788,0.369,0.636,0.592,�k��,2.6,��
2021/08/31,01:00,0.615,0.918,0.580,1.107,0.787,0.368,0.636,0.593,�k��,3.7,��
2021/08/31,01:10,0.615,0.919,0.579,1.110,0.790,0.368,0.638,0.593,�k��,4.4,��
2021/08/31,01:20,0.613,0.918,0.579,1.106,0.790,0.368,0.636,0.594,�k��,3.8,��
2021/08/31,01:30,0.614,0.919,0.580,1.107,0.790,0.368,0.635,0.594,�k�k��,2.0,��
2021/08/31,01:40,0.615,0.920,0.580,1.108,0.786,0.369,0.635,0.591,�k��,1.2,��
2021/08/31,01:50,0.616,0.920,0.579,1.108,0.790,0.368,0.637,0.592,�k��,1.5,��
2021/08/31,02:00,0.614,0.920,0.579,1.108,0.789,0.368,0.637,0.593,�k��,2.5,��
2021/08/31,02:10,0.614,0.919,0.579,1.108,0.789,0.368,0.635,0.594,���k��,3.3,��
2021/08/31,02:20,0.614,0.920,0.580,1.108,0.787,0.367,0.636,0.593,��,1.5,��
2021/08/31,02:30,0.613,0.920,0.579,1.108,0.788,0.369,0.636,0.593,-,CALM,��
2021/08/31,02:40,0.614,0.920,0.579,1.105,0.789,0.368,0.637,0.592,�k��,1.7,��
2021/08/31,02:50,0.613,0.921,0.578,1.107,0.789,0.368,0.637,0.594,�k��,1.7,��
2021/08/31,03:00,0.614,0.920,0.579,1.107,0.788,0.368,0.637,0.594,�k��,3.2,��
2021/08/31,03:10,0.613,0.919,0.578,1.107,0.787,0.368,0.636,0.593,�k�k��,3.9,��
2021/08/31,03:20,0.613,0.920,0.579,1.107,0.790,0.369,0.635,0.594,�k�k��,3.4,��
2021/08/31,03:30,0.612,0.917,0.580,1.107,0.788,0.368,0.635,0.594,�k�k��,2.8,��
2021/08/31,03:40,0.614,0.920,0.579,1.107,0.789,0.366,0.635,0.593,�k�k��,2.3,��
2021/08/31,03:50,0.613,0.917,0.579,1.107,0.788,0.367,0.636,0.593,�k�k��,2.3,��
2021/08/31,04:00,0.611,0.919,0.577,1.108,0.788,0.367,0.636,0.592,�k��,2.3,��
2021/08/31,04:10,0.614,0.918,0.578,1.105,0.789,0.367,0.634,0.595,�k�k��,2.5,��
2021/08/31,04:20,0.613,0.920,0.580,1.104,0.786,0.368,0.634,0.593,�k�k��,2.0,��
2021/08/31,04:30,0.611,0.918,0.579,1.107,0.788,0.368,0.636,0.593,�k��,2.0,��
2021/08/31,04:40,0.614,0.919,0.578,1.107,0.791,0.369,0.635,0.593,�k�k��,2.6,��
2021/08/31,04:50,0.613,0.919,0.578,1.108,0.787,0.368,0.637,0.594,�k�k��,2.3,��
2021/08/31,05:00,0.612,0.920,0.578,1.108,0.789,0.367,0.636,0.593,���k��,2.0,��
2021/08/31,05:10,0.614,0.917,0.580,1.107,0.788,0.368,0.636,0.592,���k��,1.4,��
2021/08/31,05:20,0.613,0.918,0.578,1.108,0.787,0.368,0.636,0.594,���k��,0.8,��
2021/08/31,05:30,0.615,0.919,0.579,1.108,0.789,0.368,0.634,0.593,�k��,0.6,��
2021/08/31,05:40,0.613,0.920,0.579,1.109,0.789,0.368,0.635,0.594,���k��,1.2,��
2021/08/31,05:50,0.613,0.919,0.580,1.107,0.791,0.366,0.634,0.593,�k��,2.0,��
2021/08/31,06:00,0.614,0.918,0.579,1.107,0.787,0.368,0.635,0.594,�k�k��,2.3,��
2021/08/31,06:10,0.613,0.918,0.577,1.108,0.788,0.366,0.634,0.593,�k�k��,1.5,��
2021/08/31,06:20,0.613,0.917,0.579,1.108,0.788,0.367,0.636,0.594,�k��,2.2,��
2021/08/31,06:30,0.611,0.917,0.577,1.106,0.788,0.368,0.637,0.595,�k�k��,2.3,��
2021/08/31,06:40,0.615,0.917,0.580,1.106,0.788,0.368,0.637,0.594,�k�k��,2.6,��
2021/08/31,06:50,0.613,0.918,0.578,1.108,0.789,0.368,0.635,0.594,�k��,3.8,��
2021/08/31,07:00,0.614,0.918,0.581,1.108,0.788,0.368,0.634,0.594,�k��,4.9,��
2021/08/31,07:10,0.615,0.918,0.578,1.106,0.790,0.368,0.634,0.593,�k��,3.7,��
2021/08/31,07:20,0.612,0.915,0.580,1.109,0.788,0.366,0.636,0.594,�k��,2.3,��
2021/08/31,07:30,0.613,0.918,0.579,1.107,0.788,0.368,0.636,0.592,�k��,2.8,��
2021/08/31,07:40,0.614,0.920,0.579,1.107,0.789,0.366,0.637,0.593,�k��,3.3,��
2021/08/31,07:50,0.612,0.917,0.578,1.108,0.788,0.368,0.636,0.593,�k��,2.3,��
2021/08/31,08:00,0.612,0.915,0.578,1.107,0.789,0.367,0.637,0.592,���k��,0.9,��
2021/08/31,08:10,0.612,0.918,0.578,1.105,0.788,0.366,0.637,0.593,�k�k��,1.9,��
2021/08/31,08:20,0.613,0.918,0.578,1.107,0.789,0.368,0.637,0.593,���쐼,0.8,��
2021/08/31,08:30,0.615,0.917,0.577,1.109,0.787,0.368,0.637,0.594,���k��,2.0,��
2021/08/31,08:40,0.611,0.917,0.579,1.106,0.787,0.368,0.638,0.594,�k�k��,1.2,��
2021/08/31,08:50,0.614,0.915,0.579,1.106,0.788,0.368,0.639,0.593,�k��,1.7,��
2021/08/31,09:00,0.614,0.917,0.579,1.106,0.787,0.367,0.637,0.594,���k��,2.0,��
2021/08/31,09:10,0.614,0.916,0.579,1.109,0.787,0.368,0.637,0.593,�k�k��,2.5,��
2021/08/31,09:20,0.615,0.916,0.578,1.109,0.788,0.366,0.638,0.591,�k�k��,2.6,��
2021/08/31,09:30,0.614,0.916,0.579,1.106,0.789,0.367,0.636,0.592,��,1.2,��
2021/08/31,09:40,0.617,0.916,0.579,1.108,0.790,0.366,0.636,0.591,���k��,1.5,��
2021/08/31,09:50,0.615,0.916,0.578,1.107,0.791,0.367,0.634,0.591,�k�k��,1.1,��
2021/08/31,10:00,0.615,0.917,0.580,1.110,0.787,0.367,0.636,0.591,���쐼,1.5,��
2021/08/31,10:10,0.616,0.919,0.581,1.109,0.788,0.369,0.636,0.592,��,2.3,��
2021/08/31,10:20,0.616,0.915,0.580,1.107,0.789,0.368,0.636,0.593,���k��,2.9,��
2021/08/31,10:30,0.616,0.918,0.579,1.110,0.789,0.368,0.635,0.593,���k��,2.0,��
2021/08/31,10:40,0.617,0.920,0.581,1.110,0.791,0.369,0.636,0.592,���k��,1.9,��
2021/08/31,10:50,0.616,0.920,0.579,1.109,0.789,0.368,0.637,0.593,���쐼,1.5,��
2021/08/31,11:00,0.614,0.918,0.579,1.109,0.790,0.368,0.637,0.593,�쐼,2.3,��
2021/08/31,11:10,0.615,0.919,0.579,1.109,0.789,0.369,0.638,0.593,���k��,2.9,��
2021/08/31,11:20,0.613,0.916,0.579,1.111,0.790,0.368,0.637,0.592,���k��,3.3,��
2021/08/31,11:30,0.615,0.917,0.579,1.111,0.789,0.369,0.637,0.592,�k��,4.0,��
2021/08/31,11:40,0.616,0.916,0.578,1.113,0.790,0.368,0.638,0.593,���k��,4.1,��
2021/08/31,11:50,0.616,0.916,0.580,1.111,0.787,0.370,0.638,0.591,���k��,3.8,��
2021/08/31,12:00,0.618,0.919,0.579,1.112,0.788,0.368,0.639,0.591,�k��,3.0,��
2021/08/31,12:10,0.619,0.918,0.579,1.111,0.791,0.370,0.636,0.591,�k��,0.9,��
2021/08/31,12:20,0.616,0.921,0.579,1.113,0.792,0.368,0.637,0.591,���쓌,1.9,��
2021/08/31,12:30,0.616,0.919,0.579,1.110,0.792,0.369,0.636,0.593,�쓌,2.2,��
2021/08/31,12:40,0.617,0.922,0.579,1.111,0.792,0.368,0.638,0.592,���쓌,2.0,��
2021/08/31,12:50,0.618,0.919,0.579,1.112,0.791,0.369,0.637,0.592,��,2.3,��
2021/08/31,13:00,0.617,0.920,0.578,1.111,0.793,0.367,0.637,0.592,��,2.6,��
2021/08/31,13:10,0.617,0.921,0.579,1.109,0.792,0.368,0.636,0.592,���쓌,3.4,��
2021/08/31,13:20,0.618,0.920,0.578,1.110,0.791,0.369,0.636,0.593,�쓌,3.3,��
2021/08/31,13:30,0.617,0.919,0.580,1.111,0.792,0.369,0.637,0.593,�쓌,3.4,��
2021/08/31,13:40,0.618,0.920,0.578,1.114,0.793,0.368,0.638,0.593,���쓌,3.9,��
2021/08/31,13:50,0.619,0.919,0.580,1.113,0.793,0.367,0.637,0.594,���쓌,3.1,��
2021/08/31,14:00,0.617,0.920,0.581,1.110,0.790,0.369,0.636,0.595,���쓌,3.7,��
2021/08/31,14:10,0.620,0.917,0.579,1.113,0.792,0.367,0.637,0.593,�쓌,4.1,��
2021/08/31,14:20,0.616,0.915,0.579,1.113,0.791,0.366,0.637,0.595,�쓌,3.0,��
2021/08/31,14:30,0.617,0.919,0.580,1.115,0.790,0.367,0.637,0.594,�쓌,3.6,��
2021/08/31,14:40,0.616,0.920,0.579,1.111,0.793,0.369,0.636,0.592,�쓌,4.8,��
2021/08/31,14:50,0.617,0.920,0.580,1.113,0.793,0.368,0.636,0.594,�쓌,2.3,��
2021/08/31,15:00,0.618,0.921,0.579,1.114,0.792,0.368,0.636,0.593,�쓌,3.1,��
2021/08/31,15:10,0.619,0.919,0.580,1.113,0.794,0.367,0.637,0.595,�쓌,2.8,��
2021/08/31,15:20,0.617,0.920,0.579,1.111,0.794,0.368,0.637,0.595,�쓌,4.3,��
2021/08/31,15:30,0.616,0.921,0.580,1.111,0.793,0.368,0.638,0.594,��쓌,3.1,��
2021/08/31,15:40,0.617,0.919,0.580,1.112,0.792,0.369,0.637,0.595,�쓌,3.3,��
2021/08/31,15:50,0.616,0.922,0.582,1.113,0.794,0.369,0.637,0.594,��쓌,2.9,��
2021/08/31,16:00,0.618,0.920,0.579,1.110,0.792,0.368,0.638,0.593,��쓌,3.7,��
2021/08/31,16:10,0.618,0.921,0.578,1.112,0.793,0.368,0.639,0.594,�쓌,2.8,��
2021/08/31,16:20,0.617,0.923,0.578,1.112,0.792,0.369,0.637,0.593,��쓌,2.6,��
2021/08/31,16:30,0.617,0.922,0.580,1.112,0.796,0.368,0.637,0.593,��쓌,2.3,��
2021/08/31,16:40,0.616,0.923,0.580,1.112,0.794,0.368,0.637,0.595,��쓌,2.9,��
2021/08/31,16:50,0.616,0.921,0.579,1.114,0.794,0.368,0.637,0.592,�쓌,2.8,��
2021/08/31,17:00,0.617,0.923,0.578,1.115,0.794,0.368,0.638,0.593,��쓌,1.9,��
2021/08/31,17:10,0.615,0.923,0.581,1.115,0.791,0.367,0.638,0.593,��쓌,2.2,��
2021/08/31,17:20,0.618,0.920,0.579,1.112,0.793,0.367,0.636,0.593,��쓌,2.5,��
2021/08/31,17:30,0.616,0.923,0.578,1.114,0.794,0.368,0.635,0.593,��쐼,1.5,��
2021/08/31,17:40,0.617,0.922,0.579,1.114,0.793,0.367,0.636,0.593,��,1.7,��
2021/08/31,17:50,0.617,0.924,0.578,1.114,0.794,0.369,0.635,0.593,��쐼,2.0,��
2021/08/31,18:00,0.618,0.921,0.579,1.113,0.794,0.367,0.636,0.593,��,2.0,��
2021/08/31,18:10,0.616,0.921,0.580,1.114,0.795,0.368,0.639,0.592,��,2.0,��
2021/08/31,18:20,0.616,0.922,0.579,1.114,0.794,0.369,0.636,0.592,��,2.0,��
2021/08/31,18:30,0.616,0.924,0.579,1.115,0.795,0.371,0.636,0.593,��쐼,0.9,��
2021/08/31,18:40,0.618,0.925,0.580,1.114,0.796,0.369,0.636,0.597,��쐼,1.9,��
2021/08/31,18:50,0.616,0.923,0.581,1.114,0.793,0.369,0.637,0.593,��,3.2,��
2021/08/31,19:00,0.618,0.925,0.582,1.112,0.795,0.369,0.636,0.595,��쐼,3.1,��
2021/08/31,19:10,0.617,0.923,0.581,1.113,0.795,0.370,0.637,0.594,��쐼,2.6,��
2021/08/31,19:20,0.618,0.924,0.583,1.116,0.795,0.369,0.639,0.596,��쐼,3.0,��
2021/08/31,19:30,0.616,0.926,0.583,1.115,0.796,0.369,0.639,0.594,��쐼,2.9,��
2021/08/31,19:40,0.616,0.926,0.583,1.116,0.793,0.369,0.638,0.593,��쐼,3.3,��
2021/08/31,19:50,0.617,0.924,0.582,1.114,0.796,0.370,0.637,0.593,��쐼,3.0,��
2021/08/31,20:00,0.616,0.926,0.582,1.116,0.796,0.370,0.638,0.595,��쐼,3.5,��
2021/08/31,20:10,0.616,0.926,0.581,1.117,0.798,0.369,0.637,0.595,��쐼,3.2,��
2021/08/31,20:20,0.617,0.926,0.582,1.115,0.795,0.368,0.639,0.596,��쐼,3.4,��
2021/08/31,20:30,0.618,0.924,0.583,1.115,0.795,0.369,0.638,0.596,�쐼,3.1,��
2021/08/31,20:40,0.617,0.926,0.582,1.115,0.796,0.370,0.639,0.594,�쐼,3.4,��
2021/08/31,20:50,0.617,0.924,0.582,1.115,0.795,0.369,0.639,0.595,�쐼,2.9,��
2021/08/31,21:00,0.618,0.926,0.582,1.117,0.796,0.367,0.636,0.596,���쐼,2.9,��
2021/08/31,21:10,0.618,0.925,0.583,1.117,0.795,0.369,0.639,0.595,��,2.3,��
2021/08/31,21:20,0.616,0.926,0.582,1.116,0.796,0.369,0.637,0.594,��,2.6,��
2021/08/31,21:30,0.617,0.925,0.581,1.116,0.796,0.368,0.638,0.595,��,1.5,��
2021/08/31,21:40,0.617,0.925,0.581,1.119,0.797,0.367,0.637,0.593,��,1.9,��
2021/08/31,21:50,0.617,0.927,0.581,1.116,0.794,0.369,0.638,0.594,���k��,2.5,��
2021/08/31,22:00,0.615,0.924,0.582,1.117,0.796,0.370,0.638,0.594,��,2.6,��
2021/08/31,22:10,0.618,0.926,0.581,1.116,0.795,0.369,0.637,0.596,���k��,2.6,��
2021/08/31,22:20,0.618,0.924,0.582,1.116,0.795,0.368,0.637,0.592,���k��,3.6,��
2021/08/31,22:30,0.618,0.923,0.582,1.117,0.794,0.368,0.638,0.595,�k��,3.9,��
2021/08/31,22:40,0.618,0.926,0.582,1.118,0.794,0.367,0.639,0.595,���k��,3.6,��
2021/08/31,22:50,0.618,0.924,0.581,1.119,0.797,0.369,0.637,0.595,�k��,3.6,��
2021/08/31,23:00,0.617,0.927,0.582,1.115,0.796,0.369,0.639,0.595,���k��,2.9,��
2021/08/31,23:10,0.615,0.925,0.583,1.116,0.795,0.369,0.639,0.594,���k��,2.5,��
2021/08/31,23:20,0.616,0.924,0.582,1.117,0.794,0.369,0.637,0.594,��,2.0,��
2021/08/31,23:30,0.618,0.925,0.582,1.118,0.795,0.368,0.638,0.594,��,2.3,��
2021/08/31,23:40,0.618,0.924,0.582,1.114,0.794,0.368,0.638,0.596,���쐼,2.0,��
2021/08/31,23:50,0.618,0.926,0.583,1.119,0.796,0.369,0.638,0.594,���쐼,1.5,��
